Satellite-Ground Cal/Val Site Overpasses Predictions

Prediction of Satellite NPP Overpassing Cal/Val Site: Antarctic Dome C

Ground Cal/Val Site Location: Latitude: -75.10, Longitude: 123.35; Satellite-Ground Site NADIR distance within 100 km.

Table of predicted overpasses for the next 14.0 days since TLE Epoch: 3/30/2024
Interval Starting Time Ending Time Minimum Distance Time Minimum Distance (km)
1 03/31/2024 15:08:23 03/31/2024 15:08:29 03/31/2024 15:08:26 97.66
2 04/01/2024 14:49:22 04/01/2024 14:49:51 04/01/2024 14:49:36 13.69
3 04/03/2024 07:32:12 04/03/2024 07:32:41 04/03/2024 07:32:27 5.24
4 04/06/2024 14:55:41 04/06/2024 14:56:09 04/06/2024 14:55:55 23.24
5 04/07/2024 14:36:58 04/07/2024 14:37:14 04/07/2024 14:37:06 83.89
6 04/08/2024 07:38:32 04/08/2024 07:38:58 04/08/2024 07:38:45 40.48
7 04/09/2024 07:19:46 04/09/2024 07:20:07 04/09/2024 07:19:56 69.28
8 04/11/2024 15:02:01 04/11/2024 15:02:24 04/11/2024 15:02:12 60.71
